Regional Weather Roundup
Issued by NWS

Home | Current Version | Previous Version | Graphics & Text | Print | Product List | Glossary On
Versions: 1 2 3 4 5 6 7 8 9 10 11 12 13 14 15 16 17 18 19 20 21 22 23 24 25 26 27 28 29 30 31 32 33 34 35 36 37 38 39 40 41 42 43 44 45 46 47 48 49 50
000
ASUS44 KMEG 032110
RWRTN
TENNESSEE HOURLY STATE WEATHER ROUNDUP
NATIONAL WEATHER SERVICE MEMPHIS TN
400 PM CDT FRI JUL 03 2015

TNZ002-004-019-021-049-052-054-088>092-032200-
WEST TENNESSEE

CITY           SKY/WX    TMP DP  RH WIND       PRES   REMARKS
MEMPHIS INTL   CLOUDY    76  72  87 SW8       29.91F
NWS MEMPHIS      N/A     75 N/A N/A MISG        N/A
JACKSON        CLOUDY    74  70  87 SW12      29.92F
DYERSBURG        N/A    N/A N/A N/A MISG        N/A
PARIS          PTSUNNY   72  70  94 SW13      29.89F
LEXINGTON      MOSUNNY   72  68  88 S7        29.92F
$$

TNZ008-025-027-028-033-062-065-066-032200-
NORTH MIDDLE TENNESSEE

CITY           SKY/WX    TMP DP  RH WIND       PRES   REMARKS
NASHVILLE      CLOUDY    76  70  82 SW12G22   29.90S
CLARKSVILLE    CLOUDY    80  70  71 SW13G23   29.86F
SMYRNA         CLOUDY    77  71  81 SW12G20   29.91S
COOKEVILLE     PTSUNNY   75  73  94 S7        29.90F
CROSSVILLE     CLOUDY    72  68  87 SW8G17    29.96F
$$

TNZ061-075-076-078-094-096-097-032200-
SOUTH MIDDLE TENNESSEE

CITY           SKY/WX    TMP DP  RH WIND       PRES   REMARKS
FAYETTEVILLE   SUNNY     72  64  78 W10       29.98F
TULLAHOMA        N/A     75  66  73 SW13      29.97F
WINCHESTER     MOSUNNY   77  68  73 W12       29.97F
MCMINNVILLE    MOSUNNY   77  72  83 SW10      29.93F
COLUMBIA       PTSUNNY   75  68  78 SW15      29.93F
SHELBYVILLE    MOSUNNY   79  70  73 SW14        N/A
$$

TNZ017-018-042-046-047-032200-
NORTHEAST TENNESSEE

CITY           SKY/WX    TMP DP  RH WIND       PRES   REMARKS
TRI CITIES     CLOUDY    73  68  84 SW9       29.92F
ELIZABETHTON   CLOUDY    68  66  94 CALM      29.94S
$$

TNZ012-013-036-069-073-074-032200-
CENTRAL EAST TENNESSEE

CITY           SKY/WX    TMP DP  RH WIND       PRES   REMARKS
KNOXVILLE      CLOUDY    76  69  79 SW22G29   29.92S
OAK RIDGE      PTSUNNY   78  69  73 SW8       29.92S
GATLINBURG     PTCLDY    75  66  73 SW13      29.92R
MORRISTOWN       N/A     75  70  83 SW15      29.92S
$$

TNZ083-085-099-032200-
SOUTHEAST TENNESSEE

CITY           SKY/WX    TMP DP  RH WIND       PRES   REMARKS
CHATTANOOGA    PTSUNNY   80  66  62 SW12G20   29.96F
$$

SKY/WX REPORTED AS FAIR MEANS FEW OR NO CLOUDS BELOW
12 THOUSAND FEET.




USA.gov is the U.S. government's official web portal to all federal, state and local government web resources and services.